This is the latest recevied weather packets stored in our database for station/object WB9ZLM. If no packets are shown the sender has not sent any weather packets the latest 10 day(s).
| Time | Temp. | Humidity | Pressure | Rain* | Wind** | Luminosity | Snow |
|---|---|---|---|---|---|---|---|
| 1777888860 | 12.22° C | 71% | 1008.1 hPa | 0 mm | - | - | - |
| 1777888022 | 12.22° C | 68% | 1008.2 hPa | 0 mm | - | - | - |
| 1777887960 | 12.22° C | 68% | 1008.2 hPa | 0 mm | - | - | - |
| 1777887121 | 12.78° C | 66% | 1008.2 hPa | 0 mm | - | - | - |
| 1777887060 | 12.78° C | 66% | 1008.2 hPa | 0 mm | - | - | - |
| 1777886221 | 12.78° C | 64% | 1008.3 hPa | 0 mm | - | - | - |
| 1777886160 | 12.78° C | 64% | 1008.3 hPa | 0 mm | - | - | - |
| 1777885321 | 12.78° C | 64% | 1008.2 hPa | 0 mm | - | - | - |
| 1777885260 | 12.78° C | 64% | 1008.2 hPa | 0 mm | - | - | - |
| 1777884421 | 13.33° C | 62% | 1008.2 hPa | 0 mm | - | - | - |
| 1777884360 | 13.33° C | 62% | 1008.2 hPa | 0 mm | - | - | - |
| 1777883521 | 13.33° C | 60% | 1008.2 hPa | 0 mm | - | - | - |
| 1777883460 | 13.33° C | 60% | 1008.2 hPa | 0 mm | - | - | - |
| 1777882621 | 13.33° C | 60% | 1008.4 hPa | 0 mm | - | - | - |
| 1777882560 | 13.33° C | 60% | 1008.4 hPa | 0 mm | - | - | - |
| 1777881722 | 13.89° C | 62% | 1008.2 hPa | 0 mm | - | - | - |
| 1777881660 | 13.89° C | 62% | 1008.2 hPa | 0 mm | - | - | - |
| 1777880821 | 13.89° C | 59% | 1008.5 hPa | 0 mm | - | - | - |
| 1777880760 | 13.89° C | 59% | 1008.5 hPa | 0 mm | - | - | - |
| 1777879921 | 13.89° C | 59% | 1008.7 hPa | 0 mm | - | - | - |
| 1777879860 | 13.89° C | 59% | 1008.7 hPa | 0 mm | - | - | - |
| 1777879021 | 13.89° C | 58% | 1008.7 hPa | 0 mm | - | - | - |
| 1777878960 | 13.89° C | 58% | 1008.7 hPa | 0 mm | - | - | - |
| 1777878122 | 13.89° C | 59% | 1014.1 hPa | 0 mm | - | - | - |
| 1777878060 | 13.89° C | 59% | 1014.1 hPa | 0 mm | - | - | - |
* Rain latest hour (hover to see other rain measurements)
** Current wind speed in m/s (hover to see current wind gust speed)